FW2684 Weather Reports


time (UTC)temp
C
wind
direction
speed
KPH
gust
KPH
rain 1hr
cm
rain 24hr
cm
rain mn
cm
humidity
%
barometer
mb
20260510093435 11 114 4.8 9.7 0.00 0.00 0.00 64 1015.9
20260510092931 11 122 4.8 6.4 0.00 0.00 0.00 64 1015.8
20260510092433 12 104 4.8 6.4 0.00 0.00 0.00 62 1015.9
20260510091931 12 110 4.8 8.0 0.00 0.00 0.00 62 1015.8
20260510091653 11 106 4.8 8.0 0.00 0.00 0.00 62 1015.7
20260510090916 11 107 4.8 6.4 0.00 0.00 0.00 61 1015.5
20260510090420 11 101 4.8 8.0 0.00 0.00 0.00 61 1015.4
20260510085916 11 172 4.8 8.0 0.00 0.00 0.00 60 1015.4
20260510085419 11 117 6.4 8.0 0.00 0.00 0.00 61 1015.4
20260510084915 11 119 6.4 8.0 0.00 0.00 0.00 62 1015.4
20260510084419 11 124 6.4 6.4 0.00 0.00 0.00 61 1015.4
20260510083916 11 118 6.4 9.7 0.00 0.00 0.00 63 1015.4
20260510083419 11 104 6.4 11.3 0.00 0.00 0.00 63 1015.4
20260510082915 11 252 6.4 11.3 0.00 0.00 0.00 64 1015.4
20260510082420 11 108 6.4 9.7 0.00 0.00 0.00 64 1015.4
20260510081915 11 128 6.4 9.7 0.00 0.00 0.00 63 1015.5
20260510081420 11 92 6.4 8.0 0.00 0.00 0.00 64 1015.4
20260510080916 11 167 6.4 8.0 0.00 0.00 0.00 62 1015.3
20260510080420 11 137 6.4 8.0 0.00 0.00 0.00 63 1015.2
20260510075916 11 120 6.4 8.0 0.00 0.00 0.00 62 1015.1
20260510075420 11 108 4.8 11.3 0.00 0.00 0.00 62 1015.1
20260510075132 10 99 6.4 11.3 0.00 0.00 0.00 64 1015.2
20260510074416 10 131 6.4 11.3 0.00 0.00 0.00 65 1015.1
20260510073917 10 114 6.4 8.0 0.00 0.00 0.00 69 1015.1
20260510073417 10 112 6.4 8.0 0.00 0.00 0.00 71 1015.1
20260510072902 10 140 6.4 8.0 0.00 0.00 0.00 73 1015.2
20260510072402 10 166 6.4 8.0 0.00 0.00 0.00 74 1015.2
20260510071903 10 125 6.4 8.0 0.00 0.00 0.00 75 1015.2
20260510071403 10 121 6.4 8.0 0.00 0.00 0.00 74 1015.3
20260510070903 10 118 4.8 8.0 0.00 0.00 0.00 74 1015.3
20260510070402 10 119 6.4 8.0 0.00 0.00 0.00 74 1015.3
20260510065847 10 117 6.4 8.0 0.00 0.00 0.00 74 1015.2
20260510065347 10 123 6.4 8.0 0.00 0.00 0.00 75 1015.2
20260510065330 10 107 6.4 9.7 0.00 0.00 0.00 75 1015.1
20260510064346 10 128 6.4 9.7 0.00 0.00 0.00 75 1015.1
20260510063846 10 109 6.4 8.0 0.00 0.00 0.00 75 1015.1
20260510063346 10 120 6.4 8.0 0.00 0.00 0.00 75 1015.1
20260510062946 11 120 6.4 8.0 0.00 0.00 0.00 74 1015.2
20260510061847 11 95 6.4 8.0 0.00 0.00 0.00 73 1015.1
20260510061347 11 110 6.4 8.0 0.00 0.00 0.00 73 1015.2
20260510060846 11 122 6.4 8.0 0.00 0.00 0.00 73 1015.2
20260510060336 11 130 6.4 8.0 0.00 0.00 0.00 73 1015.1
20260510055833 11 112 6.4 9.7 0.00 0.00 0.00 72 1015.2
20260510055325 11 101 6.4 9.7 0.00 0.00 0.00 72 1015.2
20260510054824 11 115 6.4 8.0 0.00 0.00 0.00 72 1015.2
20260510054320 11 99 6.4 8.0 0.00 0.00 0.00 72 1015.2
20260510053818 11 106 6.4 9.7 0.00 0.00 0.00 71 1015.1
20260510053321 11 124 6.4 9.7 0.00 0.00 0.00 70 1015.2
20260510052817 11 113 6.4 9.7 0.00 0.00 0.00 70 1015.1
20260510052321 11 105 6.4 8.0 0.00 0.00 0.00 70 1015.1
20260510051819 11 119 6.4 8.0 0.00 0.00 0.00 70 1015.1
20260510051307 11 103 6.4 9.7 0.00 0.00 0.00 70 1015.1
20260510050806 11 114 6.4 9.7 0.00 0.00 0.00 70 1015.1
20260510050305 11 111 6.4 9.7 0.00 0.00 0.00 69 1015.1
20260510045748 11 112 6.4 9.7 0.00 0.00 0.00 69 1015.1
20260510045510 11 111 6.4 8.0 0.00 0.00 0.00 69 1015.2
20260510044747 11 125 6.4 8.0 0.00 0.00 0.00 69 1015.1
20260510044249 11 114 6.4 9.7 0.00 0.00 0.00 68 1015.2
20260510043748 11 123 6.4 9.7 0.00 0.00 0.00 68 1015.2
20260510043249 11 110 6.4 9.7 0.00 0.00 0.00 68 1015.4
20260510042747 11 114 6.4 9.7 0.00 0.00 0.00 68 1015.3
20260510042250 11 110 6.4 8.0 0.00 0.00 0.00 67 1015.4
20260510041747 11 102 6.4 8.0 0.00 0.00 0.00 67 1015.3
20260510041507 11 113 6.4 8.0 0.00 0.00 0.00 66 1015.3
20260510040747 12 100 6.4 8.0 0.00 0.00 0.00 65 1015.4
20260510040248 11 102 6.4 9.7 0.00 0.00 0.00 65 1015.3
20260510035738 11 104 6.4 9.7 0.00 0.00 0.00 66 1015.3
20260510035234 11 96 6.4 8.0 0.00 0.00 0.00 66 1015.3
20260510034718 11 93 6.4 8.0 0.00 0.00 0.00 65 1015.3
20260510034219 11 110 6.4 8.0 0.00 0.00 0.00 66 1015.3
20260510033940 11 113 6.4 8.0 0.00 0.00 0.00 65 1015.3
20260510033219 11 103 6.4 6.4 0.00 0.00 0.00 65 1015.4
20260510032720 11 101 6.4 6.4 0.00 0.00 0.00 64 1015.5
20260510032220 11 102 6.4 6.4 0.00 0.00 0.00 64 1015.4
20260510031720 11 102 6.4 9.7 0.00 0.00 0.00 64 1015.4
20260510031536 11 94 6.4 9.7 0.00 0.00 0.00 65 1015.4
20260510030220 12 107 6.4 8.0 0.00 0.00 0.00 66 1015.3
20260510025942 12 111 6.4 6.4 0.00 0.00 0.00 66 1015.3
20260510025219 12 111 4.8 6.4 0.00 0.00 0.00 66 1015.3
20260510024720 12 104 4.8 8.0 0.00 0.00 0.00 66 1015.3
20260510024220 12 159 6.4 8.0 0.00 0.00 0.00 66 1015.3
20260510023720 12 104 6.4 8.0 0.00 0.00 0.00 66 1015.3
20260510023220 12 103 6.4 8.0 0.00 0.00 0.00 66 1015.3
20260510022707 12 85 6.4 8.0 0.00 0.00 0.00 67 1015.2
20260510022425 12 160 6.4 8.0 0.00 0.00 0.00 66 1015.2
20260510021913 12 108 6.4 8.0 0.00 0.00 0.00 67 1015.1
20260510021149 12 107 6.4 6.4 0.00 0.00 0.00 68 1015.0
20260510020649 12 95 6.4 8.0 0.00 0.00 0.00 69 1014.9
20260510020149 12 98 6.4 8.0 0.00 0.00 0.00 69 1014.8
20260510015649 12 95 6.4 8.0 0.00 0.00 0.00 69 1014.8
20260510015149 12 101 6.4 8.0 0.00 0.00 0.00 70 1014.7
20260510014649 12 94 6.4 6.4 0.00 0.00 0.00 70 1014.5
20260510014636 12 92 6.4 6.4 0.00 0.00 0.00 71 1014.5
20260510013915 12 92 6.4 6.4 0.00 0.00 0.00 71 1014.5
20260510013150 12 85 6.4 8.0 0.00 0.00 0.00 71 1014.4
20260510012650 12 83 6.4 8.0 0.00 0.00 0.00 71 1014.3
20260510012150 12 88 6.4 8.0 0.00 0.00 0.00 70 1014.2
20260510011646 12 89 6.4 8.0 0.00 0.00 0.00 71 1014.2
20260510011149 12 102 6.4 8.0 0.00 0.00 0.00 71 1014.2
20260510010650 12 91 6.4 8.0 0.00 0.00 0.00 72 1014.0
20260510010150 12 84 6.4 8.0 0.00 0.00 0.00 72 1014.0
20260510005650 12 83 6.4 8.0 0.00 0.00 0.00 73 1014.1
20260510005136 12 99 6.4 8.0 0.00 0.00 0.00 73 1014.0
20260510004636 13 163 6.4 8.0 0.00 0.00 0.00 72 1013.8
20260510004136 13 95 6.4 8.0 0.00 0.00 0.00 71 1013.6
20260510003901 13 92 6.4 6.4 0.00 0.00 0.00 70 1013.5
20260510003136 13 94 6.4 6.4 0.00 0.00 0.00 70 1013.5
20260510002637 13 94 6.4 8.0 0.00 0.00 0.00 69 1013.4
20260510002137 13 88 6.4 8.0 0.00 0.00 0.00 69 1013.4
20260510001637 13 89 6.4 8.0 0.00 0.00 0.00 72 1013.4
20260510001136 13 96 6.4 8.0 0.00 0.00 0.00 73 1013.4
20260510000636 13 95 6.4 8.0 0.00 0.00 0.00 73 1013.3
20260510000137 13 71 6.4 8.0 0.00 0.00 0.00 74 1013.2
20260509235636 13 95 6.4 8.0 0.00 0.00 0.00 74 1013.1
20260509235136 14 90 6.4 8.0 0.00 0.00 0.00 73 1013.1
20260509234634 14 84 6.4 8.0 0.00 0.00 0.00 72 1013.1
20260509234134 14 80 6.4 8.0 0.00 0.00 0.00 71 1013.1
20260509233856 15 97 4.8 8.0 0.00 0.00 0.00 70 1013.1
20260509233134 15 95 4.8 8.0 0.00 0.00 0.00 70 1013.0
20260509232634 15 85 4.8 8.0 0.00 0.00 0.00 69 1013.0
20260509232135 15 98 4.8 8.0 0.00 0.00 0.00 68 1013.0
20260509231635 15 94 4.8 8.0 0.00 0.00 0.00 67 1013.0
20260509231614 15 103 4.8 8.0 0.00 0.00 0.00 66 1013.0
20260509230954 15 91 4.8 8.0 0.00 0.00 0.00 66 1012.9
20260509225635 15 167 4.8 6.4 0.00 0.00 0.00 67 1013.0
20260509225135 15 91 3.2 6.4 0.00 0.00 0.00 69 1013.0
20260509225115 15 105 3.2 6.4 0.00 0.00 0.00 68 1012.9
20260509224618 15 87 3.2 6.4 0.00 0.00 0.00 67 1013.0
20260509223631 15 175 3.2 6.4 0.00 0.00 0.00 69 1013.0
20260509223128 15 278 3.2 8.0 0.00 0.00 0.00 68 1013.0
20260509222625 15 76 3.2 8.0 0.00 0.00 0.00 68 1013.1
20260509222125 15 89 3.2 6.4 0.00 0.00 0.00 68 1013.1
20260509221625 15 99 3.2 6.4 0.00 0.00 0.00 68 1013.0
20260509221125 15 117 4.8 8.0 0.00 0.00 0.00 68 1013.0
20260509220625 15 106 3.2 8.0 0.00 0.00 0.00 68 1013.0
20260509220125 15 86 3.2 8.0 0.00 0.00 0.00 68 1012.9
20260509215625 15 80 3.2 6.4 0.00 0.00 0.00 69 1013.0
20260509215126 15 109 3.2 6.4 0.00 0.00 0.00 69 1012.9
20260509214626 15 98 4.8 6.4 0.00 0.00 0.00 68 1013.0
20260509214125 15 125 3.2 6.4 0.00 0.00 0.00 69 1012.9
20260509213625 15 111 3.2 9.7 0.00 0.00 0.00 69 1012.9
20260509213126 15 89 3.2 9.7 0.00 0.00 0.00 68 1012.7
20260509212627 16 70 4.8 9.7 0.00 0.00 0.00 67 1012.6
20260509212126 15 83 3.2 8.0 0.00 0.00 0.00 68 1012.7
20260509211844 15 64 3.2 6.4 0.00 0.00 0.00 68 1012.7
20260509211123 15 90 3.2 8.0 0.00 0.00 0.00 68 1012.6
20260509211110 15 100 3.2 8.0 0.00 0.00 0.00 67 1012.6
20260509210124 15 95 3.2 8.0 0.00 0.00 0.00 66 1012.6
20260509205623 15 84 4.8 12.9 0.00 0.00 0.00 67 1012.5
20260509205136 16 77 4.8 12.9 0.00 0.00 0.00 66 1012.5
20260509204623 16 156 3.2 8.0 0.00 0.00 0.00 65 1012.5
20260509204123 16 75 3.2 8.0 0.00 0.00 0.00 64 1012.4
20260509203624 16 238 3.2 8.0 0.00 0.00 0.00 63 1012.4
20260509203123 16 66 3.2 8.0 0.00 0.00 0.00 64 1012.3
20260509202623 17 59 3.2 8.0 0.00 0.00 0.00 63 1012.4
20260509202612 17 58 3.2 8.0 0.00 0.00 0.00 61 1012.3
20260509201623 17 90 3.2 9.7 0.00 0.00 0.00 62 1012.3
20260509201124 16 93 3.2 9.7 0.00 0.00 0.00 62 1012.1
20260509200624 16 149 3.2 8.0 0.00 0.00 0.00 63 1012.2
20260509200121 16 53 3.2 8.0 0.00 0.00 0.00 63 1012.2
20260509195617 16 137 3.2 8.0 0.00 0.00 0.00 62 1012.2
20260509195341 16 269 3.2 6.4 0.00 0.00 0.00 64 1012.3
20260509195108 16 115 3.2 8.0 0.00 0.00 0.00 63 1012.2
20260509194119 15 121 3.2 9.7 0.00 0.00 0.00 64 1012.3
20260509193618 16 98 3.2 9.7 0.00 0.00 0.00 63 1012.4
20260509193119 16 108 3.2 9.7 0.00 0.00 0.00 63 1012.6
20260509192619 16 191 3.2 9.7 0.00 0.00 0.00 63 1012.5
20260509192118 16 352 3.2 9.7 0.00 0.00 0.00 63 1012.5
20260509191618 16 91 3.2 9.7 0.00 0.00 0.00 60 1012.5
20260509191119 15 105 3.2 8.0 0.00 0.00 0.00 63 1012.5
20260509190619 15 141 4.8 9.7 0.00 0.00 0.00 64 1012.6
20260509190604 15 186 4.8 9.7 0.00 0.00 0.00 69 1012.6
20260509185619 15 97 4.8 8.0 0.00 0.00 0.00 69 1012.7
20260509185119 15 87 4.8 9.7 0.00 0.00 0.00 69 1012.9
20260509185103 15 95 4.8 9.7 0.00 0.00 0.00 69 1012.9
20260509184117 15 58 4.8 9.7 0.00 0.00 0.00 69 1013.0
20260509183613 15 84 4.8 9.7 0.00 0.00 0.00 69 1013.0
20260509183113 15 88 4.8 11.3 0.00 0.00 0.00 69 1013.0
20260509182613 15 66 4.8 11.3 0.00 0.00 0.00 69 1013.0
20260509182113 15 105 4.8 8.0 0.00 0.00 0.00 68 1013.0
20260509181613 15 153 4.8 11.3 0.00 0.00 0.00 68 1013.1
20260509181116 15 163 4.8 11.3 0.00 0.00 0.00 66 1013.1
20260509181109 15 24 4.8 9.7 0.00 0.00 0.00 66 1013.1
20260509180115 15 95 3.2 9.7 0.00 0.00 0.00 64 1013.1
20260509175614 16 120 3.2 8.0 0.00 0.00 0.00 63 1013.2
20260509175114 16 147 3.2 8.0 0.00 0.00 0.00 62 1013.2
20260509175057 15 96 3.2 9.7 0.00 0.00 0.00 63 1013.3
20260509174114 15 69 4.8 9.7 0.00 0.00 0.00 65 1013.3
20260509173611 16 82 3.2 8.0 0.00 0.00 0.00 63 1013.2
20260509173111 15 86 3.2 8.0 0.00 0.00 0.00 63 1013.3
20260509172608 15 142 3.2 8.0 0.00 0.00 0.00 63 1013.3
20260509172550 15 189 4.8 8.0 0.00 0.00 0.00 65 1013.5
20260509171556 15 183 4.8 9.7 0.00 0.00 0.00 63 1013.5
20260509171057 16 124 3.2 9.7 0.00 0.00 0.00 64 1013.6
20260509170555 15 15 3.2 9.7 0.00 0.00 0.00 64 1013.6
20260509165557 15 90 4.8 8.0 0.00 0.00 0.00 66 1013.5
20260509165056 14 75 4.8 8.0 0.00 0.00 0.00 68 1013.6
20260509164556 13 83 4.8 9.7 0.00 0.00 0.00 67 1013.4
20260509164055 13 91 6.4 9.7 0.00 0.00 0.00 71 1013.3
20260509163555 12 88 6.4 9.7 0.00 0.00 0.00 74 1013.3
20260509163538 12 72 6.4 9.7 0.00 0.00 0.00 73 1013.5
20260509162659 13 87 6.4 8.0 0.00 0.00 0.00 72 1013.5
20260509161556 13 175 6.4 9.7 0.00 0.00 0.00 70 1013.5
20260509161056 13 88 6.4 9.7 0.00 0.00 0.00 71 1013.3
20260509160556 13 97 6.4 9.7 0.00 0.00 0.00 69 1013.4
20260509160059 13 109 6.4 11.3 0.00 0.00 0.00 69 1013.3
20260509155546 13 98 6.4 11.3 0.00 0.00 0.00 68 1013.4
20260509155046 13 98 6.4 11.3 0.00 0.00 0.00 71 1013.3
20260509155023 13 89 4.8 8.0 0.00 0.00 0.00 70 1013.2
20260509154511 13 104 4.8 6.4 0.00 0.00 0.00 70 1013.4
20260509153528 13 100 6.4 9.7 0.00 0.00 0.00 70 1013.4
20260509153028 13 94 6.4 9.7 0.00 0.00 0.00 69 1013.5
20260509152541 13 109 4.8 9.7 0.00 0.00 0.00 70 1013.4
20260509152029 13 102 4.8 8.0 0.00 0.00 0.00 69 1013.5
20260509151515 13 87 4.8 8.0 0.00 0.00 0.00 70 1013.5
20260509151013 13 83 4.8 8.0 0.00 0.00 0.00 70 1013.5
20260509150957 13 83 6.4 9.7 0.00 0.00 0.00 69 1013.5
20260509145957 13 79 6.4 9.7 0.00 0.00 0.00 70 1013.5
20260509145733 13 92 6.4 11.3 0.00 0.00 0.00 69 1013.6
20260509144957 13 79 6.4 11.3 0.00 0.00 0.00 66 1013.5
20260509144457 13 125 6.4 9.7 0.00 0.00 0.00 68 1013.5
20260509143957 13 69 4.8 8.0 0.00 0.00 0.00 67 1013.4
20260509143457 13 82 4.8 9.7 0.00 0.00 0.00 67 1013.4
20260509142457 13 83 4.8 8.0 0.00 0.00 0.00 65 1013.2
20260509141957 13 84 6.4 8.0 0.00 0.00 0.00 68 1013.2
20260509141457 13 92 6.4 8.0 0.00 0.00 0.00 67 1013.1
20260509140957 13 89 6.4 8.0 0.00 0.00 0.00 69 1013.2
20260509140457 12 80 6.4 8.0 0.00 0.00 0.00 70 1013.3
20260509135957 12 74 6.4 8.0 0.00 0.00 0.00 70 1013.3
20260509135458 12 83 6.4 9.7 0.00 0.00 0.00 70 1013.4
20260509134957 12 93 6.4 9.7 0.00 0.00 0.00 70 1013.5
20260509134458 12 110 6.4 9.7 0.00 0.00 0.00 72 1013.5
20260509133958 11 156 6.4 9.7 0.00 0.00 0.00 72 1013.6
20260509133539 11 92 6.4 9.7 0.00 0.00 0.00 74 1013.5
20260509132930 11 92 6.4 8.0 0.00 0.00 0.00 75 1013.6
20260509132430 11 94 6.4 8.0 0.00 0.00 0.00 75 1013.5
20260509131429 11 112 6.4 8.0 0.00 0.00 0.00 75 1013.5
20260509130928 11 164 6.4 8.0 0.00 0.00 0.00 76 1013.5
20260509130428 10 110 6.4 8.0 0.00 0.00 0.00 77 1013.6
20260509130151 10 82 6.4 8.0 0.00 0.00 0.00 78 1013.8
20260509125653 10 99 6.4 6.4 0.00 0.00 0.00 78 1013.9
20260509124929 10 112 6.4 8.0 0.00 0.00 0.00 79 1013.9
20260509124429 10 124 6.4 8.0 0.00 0.00 0.00 79 1014.0
20260509124418 10 101 6.4 9.7 0.00 0.00 0.00 79 1014.0
20260509123428 10 117 6.4 9.7 0.00 0.00 0.00 79 1014.0
20260509123022 10 108 6.4 8.0 0.00 0.00 0.00 78 1014.0
20260509121930 10 114 4.8 6.4 0.00 0.00 0.00 79 1013.9
20260509121429 10 110 4.8 6.4 0.00 0.00 0.00 78 1013.9
20260509120930 10 107 6.4 6.4 0.00 0.00 0.00 78 1014.0
20260509120430 10 123 6.4 8.0 0.00 0.00 0.00 79 1014.0
20260509115930 10 108 6.4 8.0 0.00 0.00 0.00 79 1013.9
20260509115430 10 112 6.4 8.0 0.00 0.00 0.00 79 1013.9
20260509114930 10 112 6.4 8.0 0.00 0.00 0.00 80 1013.8
20260509114424 10 109 6.4 8.0 0.00 0.00 0.00 80 1013.9
20260509113917 10 110 6.4 8.0 0.00 0.00 0.00 80 1014.0
20260509113417 10 130 6.4 8.0 0.00 0.00 0.00 80 1013.9
20260509112915 10 121 6.4 8.0 0.00 0.00 0.00 80 1013.9
20260509112416 10 112 6.4 9.7 0.00 0.00 0.00 80 1013.8
20260509111859 10 108 6.4 9.7 0.00 0.00 0.00 80 1013.8
20260509111359 10 106 6.4 8.0 0.00 0.00 0.00 80 1013.8
20260509110859 10 108 6.4 8.0 0.00 0.00 0.00 81 1013.9
20260509110400 10 107 6.4 8.0 0.00 0.00 0.00 81 1013.9
20260509105900 10 122 6.4 8.0 0.00 0.00 0.00 81 1013.6
20260509105348 9 117 6.4 9.7 0.00 0.00 0.00 81 1013.8
20260509104847 9 84 6.4 9.7 0.00 0.00 0.00 82 1013.6
20260509104839 9 118 4.8 6.4 0.00 0.00 0.00 82 1013.6
20260509103846 9 121 4.8 8.0 0.00 0.00 0.00 82 1013.5
20260509103345 9 117 4.8 8.0 0.00 0.00 0.00 82 1013.6
20260509103107 9 98 6.4 8.0 0.00 0.00 0.00 82 1013.8
20260509102346 9 98 6.4 8.0 0.00 0.00 0.00 82 1013.8
20260509101846 9 107 4.8 8.0 0.00 0.00 0.00 81 1013.6
20260509101834 9 124 6.4 8.0 0.00 0.00 0.00 81 1013.6
20260509100846 9 88 6.4 8.0 0.00 0.00 0.00 81 1013.6
20260509100605 9 94 6.4 8.0 0.00 0.00 0.00 80 1013.6
20260509095830 9 91 6.4 8.0 0.00 0.00 0.00 81 1013.5
20260509095331 9 103 4.8 6.4 0.00 0.00 0.00 80 1013.6
20260509094844 9 101 4.8 6.4 0.00 0.00 0.00 79 1013.5
20260509094331 9 102 6.4 8.0 0.00 0.00 0.00 79 1013.5
20260509093831 9 89 6.4 8.0 0.00 0.00 0.00 79 1013.4